This is the latest recevied weather packets stored in our database for station/object DM8MH-13. If no packets are shown the sender has not sent any weather packets the latest 10 day(s).
| Time | Temp. | Humidity | Pressure | Rain* | Wind** | Luminosity | Snow |
|---|---|---|---|---|---|---|---|
| 1777784471 | 10° C | 83% | 1013.7 hPa | 0 mm | - | 126 W/m² | - |
| 1777783871 | 9.44° C | 83% | 1013.6 hPa | 0 mm | - | 96 W/m² | - |
| 1777783271 | 9.44° C | 83% | 1013.6 hPa | 0 mm | - | 52 W/m² | - |
| 1777782671 | 8.89° C | 82% | 1013.6 hPa | 0 mm | - | 30 W/m² | - |
| 1777782072 | 9.44° C | 82% | 1013.7 hPa | 0 mm | - | 19 W/m² | - |
| 1777781471 | 9.44° C | 82% | 1013.9 hPa | 0 mm | - | 12 W/m² | - |
| 1777780871 | 9.44° C | 82% | 1013.8 hPa | 0 mm | - | 7 W/m² | - |
| 1777780272 | 9.44° C | 81% | 1013.8 hPa | 0 mm | - | 0 W/m² | - |
| 1777779671 | 9.44° C | 81% | 1013.8 hPa | 0 mm | - | 0 W/m² | - |
| 1777779072 | 9.44° C | 81% | 1013.7 hPa | 0 mm | - | 0 W/m² | - |
| 1777778472 | 9.44° C | 81% | 1013.7 hPa | 0 mm | - | 0 W/m² | - |
| 1777777871 | 9.44° C | 80% | 1013.6 hPa | 0 mm | - | 0 W/m² | - |
| 1777777271 | 10° C | 79% | 1013.7 hPa | 0 mm | - | 0 W/m² | - |
| 1777776672 | 10° C | 79% | 1013.7 hPa | 0 mm | - | 0 W/m² | - |
| 1777776071 | 10° C | 78% | 1013.8 hPa | 0 mm | - | 0 W/m² | - |
| 1777775471 | 10.56° C | 77% | 1013.8 hPa | 0 mm | - | 0 W/m² | - |
| 1777774872 | 10.56° C | 77% | 1013.9 hPa | 0 mm | - | 0 W/m² | - |
| 1777774271 | 10.56° C | 76% | 1013.9 hPa | 0 mm | - | 0 W/m² | - |
| 1777773671 | 11.11° C | 75% | 1013.8 hPa | 0 mm | - | 0 W/m² | - |
| 1777773071 | 11.11° C | 75% | 1013.9 hPa | 0 mm | - | 0 W/m² | - |
| 1777772471 | 11.11° C | 75% | 1014 hPa | 0 mm | - | 0 W/m² | - |
| 1777771871 | 11.11° C | 75% | 1014.1 hPa | 0 mm | - | 0 W/m² | - |
| 1777771272 | 11.11° C | 75% | 1014.1 hPa | 0 mm | - | 0 W/m² | - |
| 1777770671 | 11.11° C | 75% | 1014 hPa | 0 mm | - | 0 W/m² | - |
| 1777770071 | 11.11° C | 75% | 1014.1 hPa | 0 mm | - | 0 W/m² | - |
* Rain latest hour (hover to see other rain measurements)
** Current wind speed in m/s (hover to see current wind gust speed)